TimeEEST,TemperatureF,Dew PointF,Humidity,Sea Level PressureIn,VisibilityMPH,Wind Direction,Wind SpeedMPH,Gust SpeedMPH,PrecipitationIn,Events,Conditions,WindDirDegrees,DateUTC
12:20 AM,51.8,39.2,62,30.06,-9999.0,NE,5.8,-,N/A,,Clear,40,2013-10-09 21:20:00
12:50 AM,48.2,39.2,71,30.06,-9999.0,NNE,4.6,-,N/A,,Clear,20,2013-10-09 21:50:00
1:20 AM,50.0,37.4,62,30.06,-9999.0,NNE,8.1,-,N/A,,Clear,20,2013-10-09 22:20:00
1:50 AM,48.2,37.4,66,30.06,-9999.0,NNE,4.6,-,N/A,,Clear,20,2013-10-09 22:50:00
2:20 AM,50.0,37.4,62,30.06,-9999.0,North,4.6,-,N/A,,Clear,10,2013-10-09 23:20:00
2:50 AM,53.6,33.8,47,30.06,-9999.0,NE,4.6,-,N/A,,Clear,50,2013-10-09 23:50:00
3:00 AM,54,35,36,30.07,12,NE,4.6,,,,,50,2013-10-10 00:00:00
3:20 AM,51.8,37.4,58,30.06,-9999.0,North,4.6,-,N/A,,Clear,10,2013-10-10 00:20:00
3:50 AM,53.6,35.6,51,30.06,-9999.0,North,4.6,-,N/A,,Clear,10,2013-10-10 00:50:00
4:20 AM,55.4,33.8,44,30.06,-9999.0,ENE,3.5,-,N/A,,Clear,60,2013-10-10 01:20:00
4:50 AM,53.6,35.6,51,30.06,-9999.0,North,3.5,-,N/A,,Clear,360,2013-10-10 01:50:00
5:20 AM,51.8,35.6,54,30.06,-9999.0,North,3.5,-,N/A,,Clear,360,2013-10-10 02:20:00
5:50 AM,50.0,35.6,58,30.06,-9999.0,NNW,3.5,-,N/A,,Clear,340,2013-10-10 02:50:00
6:20 AM,51.8,37.4,58,30.06,-9999.0,NNW,3.5,-,N/A,,Clear,340,2013-10-10 03:20:00
6:50 AM,53.6,35.6,51,30.06,-9999.0,North,4.6,-,N/A,,Clear,350,2013-10-10 03:50:00
7:20 AM,50.0,39.2,66,30.06,-9999.0,NNE,4.6,-,N/A,,Clear,30,2013-10-10 04:20:00
7:50 AM,55.4,41.0,58,30.06,-9999.0,North,4.6,-,N/A,,Clear,10,2013-10-10 04:50:00
8:20 AM,60.8,39.2,45,30.06,-9999.0,Variable,2.3,-,N/A,,Clear,0,2013-10-10 05:20:00
8:50 AM,64.4,37.4,37,30.06,-9999.0,Variable,2.3,-,N/A,,Clear,0,2013-10-10 05:50:00
9:00 AM,64,38,26,30.08,12,,2.3,,,,,,2013-10-10 06:00:00
9:20 AM,69.8,33.8,27,30.09,-9999.0,Variable,2.3,-,N/A,,Clear,0,2013-10-10 06:20:00
9:50 AM,75.2,28.4,18,30.09,-9999.0,Variable,2.3,-,N/A,,Clear,0,2013-10-10 06:50:00
10:20 AM,78.8,33.8,20,30.09,-9999.0,NNE,3.5,-,N/A,,Clear,20,2013-10-10 07:20:00
10:50 AM,80.6,26.6,14,30.09,-9999.0,East,2.3,-,N/A,,Clear,80,2013-10-10 07:50:00
11:20 AM,80.6,28.4,15,30.06,-9999.0,NNE,4.6,-,N/A,,Clear,20,2013-10-10 08:20:00
11:50 AM,84.2,26.6,12,30.06,-9999.0,NE,4.6,-,N/A,,Clear,50,2013-10-10 08:50:00
12:20 PM,84.2,24.8,11,30.06,-9999.0,WSW,2.3,-,N/A,,Clear,240,2013-10-10 09:20:00
12:50 PM,86.0,21.2,9,30.06,-9999.0,SSW,3.5,-,N/A,,Clear,210,2013-10-10 09:50:00
1:20 PM,86.0,17.6,8,30.04,-9999.0,Calm,Calm,-,N/A,,Clear,0,2013-10-10 10:20:00
1:50 PM,87.8,17.6,8,30.04,-9999.0,East,3.5,-,N/A,,Clear,90,2013-10-10 10:50:00
2:20 PM,87.8,17.6,8,30.04,-9999.0,West,1.2,-,N/A,,Clear,280,2013-10-10 11:20:00
2:50 PM,87.8,21.2,9,30.01,-9999.0,WSW,4.6,-,N/A,,Clear,240,2013-10-10 11:50:00
3:00 PM,88,22,4,30.02,6,WSW,4.6,,,,,240,2013-10-10 12:00:00
3:20 PM,87.8,21.2,9,30.01,-9999.0,West,4.6,-,N/A,,Clear,280,2013-10-10 12:20:00
3:50 PM,87.8,23.0,9,30.01,-9999.0,WSW,5.8,-,N/A,,Clear,240,2013-10-10 12:50:00
4:20 PM,87.8,23.0,9,30.01,-9999.0,WSW,6.9,-,N/A,,Clear,250,2013-10-10 13:20:00
5:20 PM,82.4,21.2,10,30.01,-9999.0,SW,9.2,-,N/A,,Clear,230,2013-10-10 14:20:00
5:50 PM,78.8,21.2,12,30.01,-9999.0,SW,8.1,-,N/A,,Clear,220,2013-10-10 14:50:00
6:20 PM,77.0,42.8,29,30.01,-9999.0,SW,6.9,-,N/A,,Clear,220,2013-10-10 15:20:00
6:50 PM,73.4,42.8,33,30.01,-9999.0,SSW,3.5,-,N/A,,Clear,200,2013-10-10 15:50:00
7:20 PM,71.6,44.6,38,30.04,-9999.0,South,3.5,-,N/A,,Clear,170,2013-10-10 16:20:00
7:50 PM,68.0,44.6,43,30.04,-9999.0,SE,2.3,-,N/A,,Clear,140,2013-10-10 16:50:00
8:20 PM,59.0,44.6,59,30.04,-9999.0,North,6.9,-,N/A,,Clear,350,2013-10-10 17:20:00
8:50 PM,59.0,46.4,63,30.04,-9999.0,ENE,8.1,-,N/A,,Clear,60,2013-10-10 17:50:00
9:00 PM,58,46,53,30.05,12,ENE,8.1,,,,,60,2013-10-10 18:00:00
9:20 PM,57.2,44.6,63,30.04,-9999.0,NE,8.1,-,N/A,,Clear,50,2013-10-10 18:20:00
9:50 PM,57.2,44.6,63,30.04,-9999.0,NNE,4.6,-,N/A,,Clear,30,2013-10-10 18:50:00
10:20 PM,53.6,44.6,72,30.04,-9999.0,North,9.2,-,N/A,,Clear,10,2013-10-10 19:20:00
10:50 PM,53.6,44.6,72,30.04,-9999.0,North,9.2,-,N/A,,Clear,360,2013-10-10 19:50:00
11:20 PM,53.6,44.6,72,30.04,-9999.0,North,9.2,-,N/A,,Clear,10,2013-10-10 20:20:00
11:50 PM,53.6,44.6,72,30.04,-9999.0,North,9.2,-,N/A,,Clear,360,2013-10-10 20:50:00